FW0788 Weather Reports


Display with metric or nautical units.
time (UTC)temp
F
wind
direction
speed
MPH
gust
MPH
rain 1hr
in
rain 24hr
in
rain mn
in
humidity
%
barometer
mb
20260504003009 60 194 0.0 0.0 0.00 0.36 0.01 87 1009.2
20260504001507 60 254 0.0 0.0 0.00 0.36 0.01 89 1009.1
20260504000004 59 195 0.0 0.0 0.00 0.36 0.01 96 1009.1
20260503234503 58 167 0.0 0.0 0.00 0.36 0.01 96 1009.2
20260503233059 56 130 0.0 0.0 0.00 0.36 0.01 96 1009.2
20260503231559 55 130 0.0 0.0 0.00 0.36 0.01 96 1009.0
20260503230057 54 130 0.0 0.0 0.00 0.36 0.01 95 1009.0
20260503224555 52 130 0.0 0.0 0.00 0.36 0.01 96 1009.0
20260503223053 51 130 0.0 0.0 0.00 0.36 0.01 95 1009.0
20260503221554 50 130 0.0 0.0 0.00 0.36 0.01 95 1008.9
20260503220048 50 130 0.0 0.0 0.00 0.36 0.01 94 1008.9
20260503214546 50 130 0.0 0.0 0.00 0.36 0.01 94 1008.9
20260503213044 51 130 0.0 0.0 0.00 0.36 0.01 94 1008.7
20260503211542 51 130 0.0 0.0 0.01 0.36 0.01 94 1008.6
20260503210038 51 130 0.0 0.0 0.01 0.36 0.01 94 1008.5
20260503204535 52 130 0.0 0.0 0.01 0.36 0.01 94 1008.4
20260503203033 53 130 0.0 0.0 0.01 0.36 0.01 94 1008.4
20260503201532 53 130 0.0 0.0 0.00 0.35 0.00 94 1008.5
20260503200030 53 130 0.0 0.0 0.00 0.35 0.00 95 1008.5
20260503194533 53 130 0.0 0.0 0.00 0.35 0.00 94 1008.4
20260503193036 54 130 0.0 0.0 0.00 0.35 0.00 95 1008.3
20260503191526 54 130 0.0 0.0 0.00 0.35 0.00 95 1008.2
20260503190034 54 130 0.0 0.0 0.00 0.35 0.00 95 1008.1
20260503184524 54 130 0.0 0.0 0.00 0.35 0.00 95 1008.3
20260503183022 54 130 0.0 0.0 0.00 0.35 0.00 95 1008.2
20260503181520 54 130 0.0 0.0 0.00 0.35 0.00 95 1008.3
20260503180020 53 130 0.0 0.0 0.00 0.35 0.00 95 1008.6
20260503174521 53 130 0.0 0.0 0.00 0.35 0.00 95 1008.5
20260503173021 53 130 0.0 0.0 0.00 0.35 0.00 95 1008.5
20260503171516 54 130 0.0 0.0 0.00 0.35 0.00 94 1008.6
20260503140106 57 130 0.0 0.0 0.00 0.35 0.00 94 1009.0
20260503081545 61 277 0.0 0.0 0.06 0.33 0.33 94 1008.9
20260503071538 62 216 0.0 0.0 0.00 0.28 0.28 93 1008.9
20260503054531 62 213 0.0 0.0 0.02 0.28 0.28 94 1009.7
20260503053021 62 262 0.0 0.0 0.06 0.28 0.28 94 1009.7
20260503051520 62 32 0.0 0.0 0.12 0.28 0.28 94 1009.8
20260503050019 62 257 0.0 0.0 0.13 0.27 0.27 93 1009.9
20260503044519 62 207 0.0 0.0 0.14 0.25 0.25 93 1010.5
20260503043019 62 149 0.0 0.0 0.10 0.20 0.20 94 1010.7
20260503041518 62 22 0.0 0.0 0.06 0.16 0.16 94 1010.1
20260503040021 62 22 0.0 0.0 0.02 0.13 0.13 94 1009.5
20260503034516 62 22 0.0 0.0 0.02 0.11 0.11 94 1009.7
20260503033023 62 22 0.0 0.0 0.01 0.10 0.10 94 1009.5
20260503031515 62 15 0.0 0.0 0.01 0.10 0.10 94 1009.6
20260503030012 62 15 0.0 0.0 0.02 0.10 0.10 94 1009.9
20260503024509 61 15 0.0 0.0 0.02 0.09 0.09 94 1010.5
20260503023008 61 351 0.0 0.0 0.04 0.09 0.09 93 1010.4
20260503021503 61 294 0.0 0.0 0.06 0.09 0.09 93 1011.0
20260503020002 60 294 0.0 0.0 0.06 0.09 0.09 92 1011.4
20260503014620 61 296 0.0 0.0 0.06 0.07 0.07 92 1011.7
20260503013058 61 296 0.0 0.0 0.06 0.06 0.06 92 1012.0
20260503011557 61 296 0.0 0.0 0.03 0.03 0.03 92 1012.1
20260503010056 61 296 0.0 0.0 0.02 0.02 0.02 92 1012.0
20260503004553 62 296 0.0 0.0 0.02 0.02 0.02 91 1012.3